When you browse on this site, cookies collect data to enhance your experience and personalize the content and advertising you see.
Visit our Privacy Policy to learn more. By continuing to use the site, you agree to this use of cookies and data.
  • en Suisse
  • Liste des pays
  • À 7 jours
  • Température de l'eau
  • Carte météo
  • Widgets météo
  • user-avatar
    Se connecter

    Météo par heure à Norwich

    Ce jour, 14 Décembre, Samedi

    Heure Température Précipitation Vent Pression Humidité
    00:00 +3°C° 0 mm 6 m/s 731 mmHg 86%
    01:00 +3°C° 0 mm 7 m/s 731 mmHg 85%
    02:00 +3°C° 0 mm 7 m/s 732 mmHg 85%
    03:00 +1°C° 0 mm 8 m/s 732 mmHg 84%
    04:00 +1°C° 0 mm 8 m/s 733 mmHg 84%
    05:00 +1°C° 0 mm 9 m/s 733 mmHg 84%
    06:00 +1°C° 0 mm 8 m/s 734 mmHg 90%
    07:00 +1°C° 0.1 mm 9 m/s 735 mmHg 84%
    08:00 +1°C° 0.1 mm 9 m/s 735 mmHg 78%
    09:00 +1°C° 0.1 mm 10 m/s 736 mmHg 72%
    10:00 +1°C° 0.1 mm 9 m/s 736 mmHg 75%
    11:00 +2°C° 0.1 mm 9 m/s 736 mmHg 78%
    12:00 +2°C° 0.1 mm 9 m/s 737 mmHg 81%
    13:00 +2°C° 0.4 mm 9 m/s 737 mmHg 76%
    14:00 +2°C° 0.4 mm 10 m/s 738 mmHg 71%
    15:00 +2°C° 0.4 mm 10 m/s 739 mmHg 67%
    16:00 +1°C° 0 mm 9 m/s 739 mmHg 68%
    17:00 +1°C° 0 mm 8 m/s 740 mmHg 70%
    18:00 0°C° 0 mm 7 m/s 740 mmHg 71%
    19:00 0°C° 0 mm 7 m/s 740 mmHg 72%
    20:00 +2°C° 0 mm 7 m/s 740 mmHg 72%
    21:00 +2°C° 0 mm 7 m/s 739 mmHg 73%
    22:00 +2°C° 0.7 mm 8 m/s 738 mmHg 78%
    23:00 +3°C° 0.7 mm 9 m/s 737 mmHg 83%

    Demain, 15 Décembre, Dimanche

    Heure Température Précipitation Vent Pression Humidité
    00:00 +5°C° 0.7 mm 10 m/s 736 mmHg 88%
    01:00 +5°C° 0.9 mm 10 m/s 735 mmHg 86%
    02:00 +4°C° 0.9 mm 11 m/s 735 mmHg 85%
    03:00 +4°C° 0.9 mm 11 m/s 735 mmHg 83%
    04:00 +3°C° 0 mm 11 m/s 735 mmHg 77%
    05:00 +2°C° 0 mm 11 m/s 736 mmHg 71%
    06:00 +2°C° 0 mm 11 m/s 737 mmHg 65%
    07:00 +1°C° 0 mm 11 m/s 738 mmHg 67%
    08:00 +1°C° 0 mm 10 m/s 740 mmHg 69%
    09:00 +1°C° 0 mm 10 m/s 741 mmHg 72%
    10:00 +2°C° 0 mm 9 m/s 741 mmHg 73%
    11:00 +3°C° 0 mm 9 m/s 742 mmHg 74%
    12:00 +4°C° 0 mm 8 m/s 743 mmHg 76%
    13:00 +4°C° 0 mm 8 m/s 743 mmHg 75%
    14:00 +4°C° 0 mm 7 m/s 743 mmHg 75%
    15:00 +4°C° 0 mm 7 m/s 743 mmHg 75%
    16:00 +4°C° 0 mm 7 m/s 744 mmHg 76%
    17:00 +4°C° 0 mm 7 m/s 744 mmHg 77%
    18:00 +4°C° 0 mm 7 m/s 744 mmHg 79%
    19:00 +4°C° 0.1 mm 7 m/s 744 mmHg 79%
    20:00 +4°C° 0.1 mm 8 m/s 745 mmHg 80%
    21:00 +4°C° 0.1 mm 8 m/s 745 mmHg 80%
    22:00 +4°C° 0.2 mm 8 m/s 745 mmHg 82%
    23:00 +4°C° 0.2 mm 8 m/s 745 mmHg 83%

    Après-demain, 16 Décembre, Lundi

    Heure Température Précipitation Vent Pression Humidité
    00:00 +4°C° 0.2 mm 7 m/s 745 mmHg 84%
    01:00 +3°C° 0 mm 7 m/s 746 mmHg 85%
    02:00 +3°C° 0 mm 6 m/s 746 mmHg 85%
    03:00 +3°C° 0 mm 5 m/s 746 mmHg 85%
    04:00 +2°C° 0 mm 5 m/s 746 mmHg 86%
    05:00 +3°C° 0 mm 4 m/s 746 mmHg 86%
    06:00 +3°C° 0 mm 4 m/s 747 mmHg 87%
    07:00 +4°C° 0.1 mm 4 m/s 747 mmHg 88%
    08:00 +3°C° 0.1 mm 5 m/s 747 mmHg 89%
    09:00 +3°C° 0.1 mm 5 m/s 747 mmHg 90%
    10:00 +5°C° 0.3 mm 5 m/s 747 mmHg 90%
    11:00 +5°C° 0.3 mm 5 m/s 747 mmHg 90%
    12:00 +6°C° 0.3 mm 4 m/s 747 mmHg 90%
    13:00 +6°C° 0.2 mm 4 m/s 746 mmHg 89%
    14:00 +6°C° 0.2 mm 5 m/s 746 mmHg 89%
    15:00 +6°C° 0.2 mm 5 m/s 746 mmHg 89%
    16:00 +6°C° 0.1 mm 4 m/s 746 mmHg 91%
    17:00 +6°C° 0.1 mm 4 m/s 746 mmHg 92%
    18:00 +6°C° 0.1 mm 4 m/s 746 mmHg 93%
    19:00 +5°C° 0.1 mm 3 m/s 746 mmHg 93%
    20:00 +5°C° 0.1 mm 3 m/s 746 mmHg 93%
    21:00 +5°C° 0.1 mm 3 m/s 747 mmHg 92%
    22:00 +4°C° 0 mm 3 m/s 747 mmHg 90%
    23:00 +4°C° 0 mm 3 m/s 747 mmHg 89%

    17 Décembre, Mardi

    Heure Température Précipitation Vent Pression Humidité
    00:00 +5°C° 0 mm 2 m/s 747 mmHg 87%
    01:00 +4°C° 0 mm 2 m/s 747 mmHg 87%
    02:00 +4°C° 0 mm 2 m/s 747 mmHg 87%
    03:00 +3°C° 0 mm 2 m/s 747 mmHg 88%
    04:00 +3°C° 0 mm 2 m/s 747 mmHg 88%
    05:00 +3°C° 0 mm 2 m/s 747 mmHg 89%
    06:00 +3°C° 0 mm 2 m/s 747 mmHg 89%
    07:00 +3°C° 0 mm 2 m/s 748 mmHg 87%
    08:00 +3°C° 0 mm 2 m/s 748 mmHg 85%
    09:00 +3°C° 0 mm 2 m/s 749 mmHg 84%
    10:00 +4°C° 0 mm 2 m/s 749 mmHg 81%
    11:00 +4°C° 0 mm 2 m/s 749 mmHg 78%
    12:00 +5°C° 0 mm 2 m/s 749 mmHg 75%
    13:00 +4°C° 0 mm 2 m/s 750 mmHg 76%
    14:00 +4°C° 0 mm 2 m/s 750 mmHg 77%
    15:00 +4°C° 0 mm 2 m/s 750 mmHg 78%
    16:00 +4°C° 0 mm 2 m/s 750 mmHg 79%
    17:00 +3°C° 0 mm 2 m/s 751 mmHg 81%
    18:00 +2°C° 0 mm 3 m/s 751 mmHg 82%
    19:00 +2°C° 0 mm 3 m/s 751 mmHg 83%
    20:00 +1°C° 0 mm 3 m/s 752 mmHg 84%
    21:00 +1°C° 0 mm 3 m/s 752 mmHg 85%
    22:00 +1°C° 0 mm 3 m/s 753 mmHg 87%
    23:00 +1°C° 0 mm 3 m/s 753 mmHg 88%

    18 Décembre, Mercredi

    Heure Température Précipitation Vent Pression Humidité
    00:00 0°C° 0 mm 3 m/s 753 mmHg 90%
    01:00 0°C° 0 mm 3 m/s 754 mmHg 90%
    02:00 -1°C° 0 mm 4 m/s 754 mmHg 90%
    03:00 -1°C° 0 mm 4 m/s 755 mmHg 90%
    04:00 0°C° 0 mm 3 m/s 755 mmHg 89%
    05:00 0°C° 0 mm 3 m/s 755 mmHg 89%
    06:00 0°C° 0 mm 3 m/s 755 mmHg 88%
    07:00 0°C° 0 mm 3 m/s 756 mmHg 88%
    08:00 0°C° 0 mm 3 m/s 756 mmHg 88%
    09:00 +2°C° 0 mm 2 m/s 757 mmHg 88%
    10:00 +3°C° 0 mm 2 m/s 757 mmHg 85%
    11:00 +4°C° 0 mm 2 m/s 757 mmHg 82%
    12:00 +5°C° 0 mm 2 m/s 757 mmHg 80%
    13:00 +4°C° 0 mm 2 m/s 757 mmHg 81%
    14:00 +4°C° 0 mm 2 m/s 757 mmHg 83%
    15:00 +4°C° 0 mm 2 m/s 757 mmHg 84%
    16:00 +4°C° 0 mm 2 m/s 757 mmHg 86%
    17:00 +2°C° 0 mm 3 m/s 757 mmHg 87%
    18:00 +2°C° 0 mm 3 m/s 756 mmHg 89%
    19:00 +1°C° 0 mm 4 m/s 756 mmHg 88%
    20:00 +1°C° 0 mm 4 m/s 756 mmHg 87%
    21:00 +2°C° 0 mm 5 m/s 756 mmHg 86%
    22:00 +2°C° 0 mm 5 m/s 755 mmHg 85%
    23:00 +2°C° 0 mm 6 m/s 755 mmHg 84%

    19 Décembre, Jeudi

    Heure Température Précipitation Vent Pression Humidité
    00:00 +2°C° 0 mm 6 m/s 754 mmHg 82%
    01:00 +3°C° 0 mm 6 m/s 753 mmHg 86%
    02:00 +3°C° 0 mm 6 m/s 753 mmHg 90%
    03:00 +3°C° 0 mm 6 m/s 752 mmHg 93%
    04:00 +4°C° 0 mm 6 m/s 752 mmHg 94%
    05:00 +5°C° 0 mm 7 m/s 751 mmHg 94%
    06:00 +5°C° 0 mm 7 m/s 750 mmHg 95%
    07:00 +5°C° 0 mm 7 m/s 750 mmHg 94%
    08:00 +6°C° 0 mm 7 m/s 750 mmHg 94%
    09:00 +6°C° 0 mm 7 m/s 749 mmHg 93%
    10:00 +6°C° 0 mm 7 m/s 749 mmHg 90%
    11:00 +8°C° 0 mm 7 m/s 749 mmHg 88%
    12:00 +9°C° 0 mm 7 m/s 748 mmHg 85%
    13:00 +8°C° 0 mm 7 m/s 748 mmHg 86%
    14:00 +8°C° 0 mm 7 m/s 748 mmHg 87%
    15:00 +8°C° 0 mm 7 m/s 747 mmHg 87%
    16:00 +8°C° 0.4 mm 6 m/s 747 mmHg 90%
    17:00 +8°C° 0.4 mm 6 m/s 747 mmHg 92%
    18:00 +8°C° 0.4 mm 5 m/s 747 mmHg 94%
    19:00 +8°C° 0.5 mm 5 m/s 747 mmHg 95%
    20:00 +8°C° 0.5 mm 5 m/s 747 mmHg 95%
    21:00 +8°C° 0.5 mm 5 m/s 747 mmHg 96%
    22:00 +8°C° 0.2 mm 4 m/s 747 mmHg 96%
    23:00 +8°C° 0.2 mm 4 m/s 747 mmHg 97%
    Voir plus